Weather in Jirkov

Czech Republic     50°29′38″N   13°26′52″E
temp.,
°C
wind,
m/s
gust,
m/s
humid.,
%
clouds,
%
prec.,
mm/h
press.,
hPa
HPBL,
m
19 april, mon
mon1923:00+5nne118989 0.0 102015
02:00+5ne0188100 0.0 102013
05:00+4n1188100 0.0 102014
08:00+6n128093 0.0 1020168
11:00+10ene2360100 0.1 10191246
14:00+12e225093 0.1 10181567
17:00+8nne2381100 1.1 1018529
20:00+7nw238682 1.1 101866
20 april, tue
tue2023:00+5nw239158 0.0 101851
02:00+6nw229154 0.0 101744
05:00+6nnw229370 0.0 101763
08:00+8n128688 0.1 1017218
11:00+10nnw117482 0.1 1017774
14:00+13sw025868 0.6 10151382
17:00+12nnw226227 0.6 1014790
20:00+9nnw22755 0.9 101536
21 april, wed
wed2123:00+7nw228550 0.0 101526
02:00+6wnw228624 0.0 101520
05:00+5nw228915 0.0 101524
08:00+8wnw24770 0.0 1015220
11:00+13wnw354428 0.0 10141952
14:00+14nw563612 0.0 10132289
17:00+14nw56385 0.0 10122022
20:00+10nnw366269 0.0 1014380
22 april, thu
thu2223:00+6nw498150 0.0 1017642
02:00+4nw4870100 0.0 1017568
05:00+1nw41071100 0.0 1018559
08:00+2wnw4864100 0.0 1018848
11:00+6wnw6845100 0.0 10181540
14:00+8wnw794090 0.0 10172280
17:00+8wnw7104653 0.0 10172042
20:00+5wnw5106220 0.1 1018773
23 april, fri
fri2323:00+3wnw38735 0.0 1020547
02:00+1w38797 0.0 1021359
05:00+1w268738 0.0 1022299
08:00+3wnw377550 0.1 1023734
11:00+5nw466461 0.0 10241095
14:00+10nw453931 0.0 10222003
17:00+11nw574171 0.0 10212015
20:00+7wnw356210 0.0 1022359